Location: Владивосток
(43.1151°N, 131.8856°E)
Time: 01:02:50
(UTC+10:00)

FO-29 - Pass Details

Date: 28 April 2024
Orbit: 801 x 1320 km, 98.6° (Epoch: 19 May)

Event Time Altitude Azimuth Distance (km) Brightness Sun altitude
Rises 03:07:56 0° 13° (NNE) 4,240 13.9 -26.7°
Reaches altitude 10° 03:10:36 10° 14° (NNE) 3,305 13.2 -26.4°
Maximum altitude 03:18:25 88° 105° (ESE) 1,327 10.0 -25.6°
Enters shadow 03:21:20 44° 193° (SSW) 1,744 10.3 -25.3°
